Santiago Peralta

Scout - River Plate
29 Oct 2028
Sunday
Process

Personality

Adaptability (17) Ambition (19) Controversy (19) Loyalty (4) Pressure (10) Professionalism (8) Sportsmanship (6) Temperament (9)

Profile

Coaching Style Democratic
License National B
Determination 6
Man Management 8
Motivating 8
Discipline 6
Job Satisfaction
100%
Fatigue
0%
Role Scout
Wage 15.2K p/w
Contract 14.03.2030

Performance

Behaviour Good
Training Effectiveness
30%
Player Development
40%
Injury Prevention
55%
Tactical Implementation
50%

Recent Events

Assessed a player now
Assessed a player now
Assessed a player now
Assessed a player now
Assessed a player now
Assessed a player now
Assessed a player now
Assessed a player now

Currently Monitoring

313
Player Club Status Ability Confidence Watched Last Observed Latest Vote
Ryan Kavuma-McQueen Accrington Stanley Active 122 / 121 40% 4 28.10.2028 -
Celías Ingenthron Platense Active 116 / 125 40% 11 28.10.2028 -
Alejandro Tapia Central Norte Active 86 / 93 40% 3 28.10.2028 -
Nicolás Azambuja Nottingham Forest Active 114 / 131 40% 3 28.10.2028 -
Máximo Magnoli Ferro Carril Oeste Active 101 / 104 40% 2 28.10.2028 -
Andrés Dávila Independiente Medellin Active 93 / 106 40% 3 28.10.2028 -
Tahiel Peralta Racing Club Active 111 / 115 40% 2 28.10.2028 -
Mauro Matorras Central Norte Active 89 / 102 40% 5 28.10.2028 -
Mateo Aguiar Tigre Active 111 / 116 40% 1 28.10.2028 -
Máximo Munarriz San Telmo Negotiating 105 / 105 40% 4 27.10.2028 -
Luka Andrade Montevideo City Torque Active 105 / 111 40% 11 27.10.2028 -
Aaron Branca Artigas Active 82 / 87 40% 7 27.10.2028 -
Markus Wæhler Lillestrom Active 111 / 108 40% 5 27.10.2028 -
Alejandro Almaraz NK Celje Active 113 / 119 40% 3 27.10.2028 -
Leonel Flores Boca Juniors Active 109 / 113 40% 1 27.10.2028 -
Christian Silva Santiago Wanderers Active 85 / 90 40% 10 26.10.2028 -
Diego Robles Union Espanola Active 86 / 85 40% 5 26.10.2028 -
Santiago Cuellar Central Norte Active 89 / 100 40% 4 26.10.2028 -
Mateo Arrieta All Boys Active 83 / 92 40% 2 26.10.2028 -
Emiliano Zambrano Cortulua Active 92 / 105 40% 2 26.10.2028 -
Joel Ezra Enyimba Active 101 / 103 40% 7 25.10.2028 -
Felipe Varela Trujillanos Active 95 / 96 40% 4 25.10.2028 -
Mateo Lizondo Colón Active 95 / 105 40% 7 25.10.2028 -
Juan Ruíz Díaz Los Andes Active 88 / 87 40% 4 25.10.2028 -
Kparobo Arierhi Lillestrom Active 106 / 117 40% 3 25.10.2028 -
Alan Torterolo Defensor Sporting Active 96 / 100 40% 4 25.10.2028 -
Tiziano Cabrera Central Norte Active 90 / 90 40% 2 25.10.2028 -
Melvin Koliqi Atvidaberg Active 86 / 92 40% 1 25.10.2028 -
Sergio Martínez Real Madrid Active 117 / 128 40% 1 25.10.2028 -
Aytor Herrera Mineros de Guayana Active 89 / 92 40% 8 24.10.2028 -
Gideon Manaseh Ikorodu City Active 99 / 103 40% 11 24.10.2028 -
Matías Magdaleno Estudiantes Active 107 / 110 40% 3 23.10.2028 -
Felipe Pujol Vélez Active 108 / 124 40% 2 23.10.2028 -
Mateo Faure BATE Active 99 / 95 40% 11 22.10.2028 -
Tobías Andrada River Plate Active 118 / 126 40% 2 22.10.2028 -
Abdullahi Mohammad Kwara United Active 90 / 97 40% 2 22.10.2028 -
Tiziano Perrotta Mirandés Active 113 / 122 40% 3 22.10.2028 -
Jan Cedilnik Chikhura Active 83 / 96 40% 1 21.10.2028 -
Tiago Rodríguez Central Norte Active 76 / 84 40% 10 20.10.2028 -
Omar Bautista Gerez Central Córdoba SdE Active 91 / 92 40% 7 20.10.2028 -
Julian Hall Real Salt Lake Active 101 / 121 40% 6 20.10.2028 -
Peyton Miller New England Revolution Active 113 / 113 40% 5 20.10.2028 -
Matías Córdoba Colón Active 110 / 110 40% 2 20.10.2028 -
Ruben Ramos LA Galaxy Active 104 / 120 40% 4 19.10.2028 -
Davinchi Getafe Active 122 / 123 40% 3 19.10.2028 -
Franco Pinoni Alvarado Active 95 / 97 40% 1 19.10.2028 -
Julián Bragado Morón Active 87 / 91 40% 12 18.10.2028 -
Facundo Martínez Montevideo City Torque Active 89 / 96 40% 6 18.10.2028 -
Jean Carlos Meneses Universitario Popayan Active 81 / 81 40% 5 18.10.2028 -
Idris Ajiya Nasarawa United Active 83 / 88 40% 4 18.10.2028 -
Giovanni Leoni Lincoln City Active 154 / 158 40% 2 18.10.2028 -
Estanislao López Colón Active 89 / 95 40% 5 17.10.2028 -
Buba Sangaré Elche Active 132 / 133 40% 3 17.10.2028 -
Trey Nyoni Rotherham United Active 140 / 147 40% 3 16.10.2028 -
Sebastian Rodriguez Houston Dynamo Active 119 / 123 40% 9 16.10.2028 -
Valentino Huertas Morón Active 107 / 107 40% 6 16.10.2028 -
James Moreno Cortulua Active 86 / 99 40% 5 15.10.2028 -
Chimobi Igwilo Rangers International Active 89 / 95 40% 10 15.10.2028 -
Nadir Sánchez Central Córdoba SdE Active 103 / 107 40% 2 15.10.2028 -
Germán Barbas Racing Santander Active 116 / 118 40% 1 15.10.2028 -
Samuel Molano Patriotas Active 89 / 89 40% 1 15.10.2028 -
Roberto Medina La Equidad Active 92 / 103 40% 5 13.10.2028 -
Francisco Machis Llaneros Active 85 / 95 40% 5 13.10.2028 -
Ramiro Jara Racing Active 93 / 96 40% 11 13.10.2028 -
Ivan Borges Defensores Active 81 / 92 40% 3 13.10.2028 -
Leandro Milito Huesca Active 101 / 105 40% 1 13.10.2028 -
Bachana Tsitaishvili Sapovnela Active 91 / 84 40% 3 12.10.2028 -
Santino Coppola Kolkheti Active 73 / 93 40% 2 12.10.2028 -
Manex Lozano Athletic Bilbao Active 128 / 134 40% 1 12.10.2028 -
Tiago Gordillo San Miguel Active 85 / 92 40% 7 11.10.2028 -
Nupe Godstime Bayelsa United Active 96 / 102 40% 4 10.10.2028 -
Facundo Rodríguez Talleres Active 94 / 100 40% 4 09.10.2028 -
Alex Verón Vélez Active 119 / 127 40% 4 08.10.2028 -
Leenhan Romero Iquique Active 92 / 96 40% 3 08.10.2028 -
Jorge Salinas Racing Santander Active 133 / 135 40% 1 08.10.2028 -
Harry Gray Harrogate Town Active 137 / 144 40% 2 06.10.2028 -
Seymour Reid New York City Active 103 / 108 40% 1 06.10.2028 -
Matías Cantero All Boys Active 91 / 102 40% 4 04.10.2028 -
Mateo Fofre Central Norte Active 84 / 94 40% 6 03.10.2028 -
Juan Camilo Córdoba Deportivo Pereira Active 86 / 94 40% 2 03.10.2028 -
Joaquín Varela Albion Active 87 / 89 40% 2 03.10.2028 -
Muhammad Suleiman Katsina United Active 85 / 86 40% 6 02.10.2028 -
Luis Yanes Real Cartagena Active 89 / 95 40% 9 02.10.2028 -
Benjamín Rodríguez Albion Active 90 / 89 40% 1 02.10.2028 -
Issa Hissein AS Etat Major Active 65 / 67 40% 11 01.10.2028 -
Musa Malik Ikorodu City Active 97 / 96 40% 3 01.10.2028 -
Franco Pulian Chacarita Juniors Active 81 / 90 40% 1 01.10.2028 -
Benito Paklayan Alvarado Active 86 / 86 40% 2 30.09.2028 -
Enzo Gariglio Naftan Active 86 / 93 40% 3 30.09.2028 -
Mateo Elisseche Maipú Active 76 / 83 40% 5 29.09.2028 -
Joaquín Núñez Llaneros Active 68 / 76 40% 5 29.09.2028 -
Nahuel Maldonado Huracán Active 97 / 104 40% 2 29.09.2028 -
Mateo Alcoba Albion Active 87 / 98 40% 5 28.09.2028 -
Lautaro Díaz San Martín Active 90 / 97 40% 3 23.09.2028 -
Abdoulaye Allamine Stars Jeunes Talents Active 83 / 76 40% 3 23.09.2028 -
Óscar Hinojosa Metropolitanos Active 84 / 89 40% 2 22.09.2028 -
Thiago D'Archivio Zulia Active 82 / 91 40% 2 22.09.2028 -
Lionel Jara Central Córdoba SdE Active 96 / 105 40% 5 22.09.2028 -
Lautaro Dufur Juventud Active 102 / 111 40% 2 21.09.2028 -
Paolo Dorini Estudiantes de Merida Active 95 / 95 40% 2 21.09.2028 -
Saleh Moustapha AS Algoy Active 60 / 65 40% 3 21.09.2028 -
Facundo Balatti Penarol Active 104 / 108 40% 1 20.09.2028 -
Benjamín Villarruel Chikhura Active 84 / 80 40% 2 17.09.2028 -
D'Hidier Pereira San Marcos de Arica Active 88 / 87 40% 1 17.09.2028 -
Andres Casseres Llaneros Active 69 / 76 40% 4 16.09.2028 -
Hosea Michael Remo Stars Active 88 / 89 40% 3 16.09.2028 -
Tobías Ramírez River Plate Active 133 / 138 40% 5 13.09.2028 -
Luca Campagnaro Colón Active 91 / 99 40% 1 12.09.2028 -
Léo Llaneros Active 84 / 81 40% 2 11.09.2028 -
Cayetano Santarelli BATE Active 88 / 86 40% 1 11.09.2028 -
Ignacio Fernandes Molodechno Active 80 / 78 40% 2 10.09.2028 -
Samuel Córdoba Depor Active 84 / 95 40% 1 09.09.2028 -
Felipe Karabulut Gimnasia y Tiro Active 97 / 106 40% 1 08.09.2028 -
Jaider Pérez Llaneros Active 90 / 90 40% 1 07.09.2028 -
Agustín Medina Lanús Active 117 / 129 40% 1 06.09.2028 -
Anderson Acevedo Bogota Active 87 / 94 40% 2 05.09.2028 -
Madaoua Tchiva CotonTchad Active 86 / 83 40% 1 05.09.2028 -
Lucas Camejo River Plate Active 83 / 86 40% 4 01.09.2028 -
Ishmael Addo Heart of Lions Active 96 / 99 40% 1 01.09.2028 -
Mateo Caballero Defensor Sporting Active 99 / 102 40% 2 31.08.2028 -
Yahor Ihnatovich Lokomotiv Gomel Active 62 / 56 40% 1 31.08.2028 -
Nana Nuhu WAFA Active 102 / 103 40% 3 30.08.2028 -
Pablo Lago Juventud Active 105 / 110 40% 1 29.08.2028 -
Darwin Pérez Metropolitanos Active 85 / 90 40% 1 29.08.2028 -
Francisco Arias Gimnasia y Esgrima Active 91 / 97 40% 2 27.08.2028 -
Nicolás Barros Schelotto Gimnasia La Plata Active 124 / 125 40% 1 27.08.2028 -
Luis Carrero Zamora Active 93 / 102 40% 1 27.08.2028 -
Joseph Abah Remo Stars Active 89 / 96 40% 2 26.08.2028 -
Juan Rodríguez Cerro Largo Active 99 / 101 40% 1 26.08.2028 -
Darlvin Yeboah Bechem United Active 89 / 104 40% 1 24.08.2028 -
Otto Stange Borussia Mönchengladbach Active 135 / 128 40% 8 23.08.2028 -
Abubakar Adams Aduana Stars Active 86 / 89 40% 3 23.08.2028 -
Axel Tape Bayer Leverkusen Active 139 / 141 40% 1 19.08.2028 -
Cristian Carrara Guidonia Montecelio Active 114 / 119 40% 7 17.08.2028 -
Idrissa Guèye Virtus Entella Active 129 / 128 40% 6 17.08.2028 -
Facundo González San Telmo Active 78 / 87 40% 1 16.08.2028 -
Juan Cortés Real Sociedad Active 65 / 87 40% 1 16.08.2028 -
Alen Vukaj Alcione Milano Active 105 / 100 40% 2 15.08.2028 -
Rahul Sharma Pontedera Active 98 / 108 40% 2 13.08.2028 -
Kwesi Sorotu Badori Berekum Chelsea Active 98 / 110 40% 1 13.08.2028 -
Axel Pedrozo Almagro Active 87 / 91 40% 1 12.08.2028 -
Andrea Luongo Trento Active 96 / 102 40% 2 10.08.2028 -
Diego Vargas Universidad de Concepcion Active 100 / 105 40% 2 10.08.2028 -
Nicolás Ferreira Artigas Active 79 / 86 40% 1 10.08.2028 -
Luca Williams-Barnett Walsall Active 125 / 134 40% 8 09.08.2028 -
Jan Bürger Northampton Town Active 121 / 122 40% 4 08.08.2028 -
Luke Brooke-Smith Chesterfield Active 109 / 105 40% 3 08.08.2028 -
Amin Nabizada Exeter City Active 120 / 124 40% 1 08.08.2028 -
Gabriel Mec Feirense Active 130 / 145 40% 1 07.08.2028 -
Dânio Djassi Portimonense Active 123 / 134 40% 1 07.08.2028 -
Dylan Moody Cheltenham Town Active 120 / 132 40% 9 12.07.2028 -
Duván Córdoba Jaguares Active 99 / 95 40% 3 12.07.2028 -
Bark Abdramane AS PSI Active 80 / 90 40% 1 12.07.2028 -
Amine Boukamir Charleroi Active 98 / 120 40% 1 04.07.2028 -
José Quevedo Tigres Active 84 / 85 40% 2 07.06.2028 -
Júnior Gamarra General Diaz Active 90 / 95 30% 1 / 1m 07.06.2028 -
Jeremías Robledo Acosta Newell's Old Boys Active 89 / 94 40% 1 07.06.2028 -
Luca Meirelles Kudrivka Active 121 / 128 40% 7 31.05.2028 -
Lamine Bèye Portimonense Active 119 / 115 40% 1 31.05.2028 -
Tobiáš Pališčák Zlin Active 102 / 119 40% 1 31.05.2028 -
André Miranda Porto Active 118 / 113 40% 1 31.05.2028 -
Francisco Souza Silva Feirense Active 111 / 120 40% 1 31.05.2028 -
Tobías Pantoja Central Norte Active 105 / 109 40% 4 30.05.2028 -
Lamin Sillah Exeter City Active 108 / 107 40% 4 30.05.2028 -
Ramiro Buratti River Plate Active 90 / 104 40% 1 30.05.2028 -
Valentín Motta Independiente Active 85 / 97 40% 1 30.05.2028 -
Sam Proctor Salford City Active 130 / 131 40% 13 29.05.2028 -
Danilo Monza Sarmiento Active 102 / 105 40% 2 29.05.2028 -
Manuel Pereyra Tigre Active 87 / 101 40% 2 29.05.2028 -
Ryan Oné Sheffield United Active 126 / 129 40% 4 28.05.2028 -
Felipe Igón Racing Club Active 101 / 115 40% 2 27.05.2028 -
Thiago Parga Huracán Active 94 / 111 40% 2 26.05.2028 -
Renato Ardissono San Lorenzo Active 88 / 100 40% 2 26.05.2028 -
Gerardo Díaz San Martín SJ Active 109 / 110 40% 3 25.05.2028 -
Jorge Sánchez Carabobo Active 93 / 104 40% 4 25.05.2028 -
Fletcher Boyd Accrington Stanley Active 104 / 111 40% 3 25.05.2028 -
Alfredo Torres Universitario Popayan Active 54 / 62 40% 1 25.05.2028 -
Jack Wint Sibenik Active 110 / 110 40% 8 22.05.2028 -
Leonardo Sosa Rosario Central Active 101 / 110 40% 1 22.05.2028 -
Jake Evans Crewe Alexandra Active 104 / 119 40% 1 20.05.2028 -
Francisco Ventre Huracán Active 81 / 103 40% 1 19.05.2028 -
Lucas Wolfert Racing Club Active 104 / 104 40% 1 19.05.2028 -
Agustín Reynoso Boca Juniors Active 85 / 99 40% 1 17.05.2028 -
Patricio Flores Defensa y Justicia Active 90 / 96 40% 2 16.05.2028 -
Ayoub Akabou Ceuta Active 106 / 105 40% 2 15.05.2028 -
Nikolay Tyulenev Nosta Active 63 / 81 40% 2 15.05.2028 -
Jamal Iddrissou Pergolettese Active 109 / 109 40% 2 15.05.2028 -
Alejandro Gutiérrez Mineros de Guayana Active 90 / 97 40% 3 14.05.2028 -
Nathan Mbala FC Metz Active 111 / 107 40% 2 14.05.2028 -
Baba N'Diaye Chaika Active 91 / 87 40% 1 14.05.2028 -
Yojan Garcés America de Cali Active 125 / 128 40% 1 14.05.2028 -
Joel Abregu Temperley Active 92 / 95 40% 3 13.05.2028 -
Thiago Perruisset Boca Juniors Active 101 / 101 40% 1 13.05.2028 -
Román Colo All Boys Active 85 / 101 40% 1 12.05.2028 -
Yurdy Ramos Real Santander Active 91 / 89 40% 1 09.05.2028 -
Máximo Casalnuovo Morón Active 87 / 99 40% 2 08.05.2028 -
Rémi Himbert AC Ajaccio Active 106 / 127 40% 1 08.05.2028 -
Fernando Bravo Almería Active 109 / 109 40% 4 07.05.2028 -
Vincenzo Damiano Atalanta Active 105 / 121 40% 5 07.05.2028 -
Kaye Furo Reading Active 132 / 123 40% 2 06.05.2028 -
Samuel Atehortúa Deportivo Pereira Active 82 / 87 40% 3 05.05.2028 -
Martín D'Aurizio Huracán Active 96 / 109 40% 2 04.05.2028 -
Ignacio Roldán Lanús Active 93 / 100 40% 1 04.05.2028 -
Facundo Binzugna Boca Juniors Active 95 / 103 40% 1 03.05.2028 -
Agustín Nogueira Barracas Central Active 94 / 100 40% 1 03.05.2028 -
Emanuel Bonda Argentinos Juniors Active 92 / 97 40% 1 03.05.2028 -
Lisandro Tejada San Martín SJ Active 93 / 104 40% 3 01.05.2028 -
Alejandro Rojo Deportivo Cali Active 86 / 100 40% 2 01.05.2028 -
Dylan Martínez River Plate Active 97 / 101 40% 1 01.05.2028 -
Lisandro Musso Central Córdoba SdE Active 89 / 97 40% 2 28.04.2028 -
Ignacio Cardozo Vélez Active 103 / 99 40% 1 28.04.2028 -
Nicolás Casa Barranquilla Active 86 / 94 40% 1 27.04.2028 -
Agustín Martínez Cádiz Active 102 / 108 40% 2 26.04.2028 -
Francisco Valdés Universidad Catolica Active 90 / 101 40% 1 26.04.2028 -
Lionel Madriaga Belgrano Active 91 / 101 40% 1 25.04.2028 -
Eduard Ihnatov Ospitaletto Active 91 / 98 40% 1 23.04.2028 -
Dilan Neves Benfica Active 88 / 95 40% 1 23.04.2028 -
Máximo Núñez Los Andes Active 94 / 107 40% 1 23.04.2028 -
Ulíses López Barracas Central Active 97 / 102 40% 1 22.04.2028 -
Louis Zecevic-John Colchester United Active 102 / 102 40% 1 21.04.2028 -
Alfonso Álvarez Ferro Carril Oeste Active 95 / 96 40% 2 20.04.2028 -
João Tavares Porto Active 81 / 76 40% 2 17.04.2028 -
Robert Cook Accrington Stanley Active 102 / 105 40% 2 11.04.2028 -
Igor Tyjon Barrow AFC Active 125 / 122 40% 2 11.04.2028 -
Thiago Nahuel Independiente Active 96 / 98 40% 1 11.04.2028 -
Anas Alaoui Lecco Active 103 / 103 40% 1 11.04.2028 -
Emiliano Zacca Deportivo Riestra Active 95 / 109 40% 2 10.04.2028 -
Juan Álvarez Argentinos Juniors Active 94 / 93 40% 1 08.04.2028 -
Nazif Inoussa Benfica Active 83 / 94 40% 2 06.04.2028 -
Elion Krosa Odd Active 87 / 103 40% 1 05.04.2028 -
Lautaro Vera Platense Active 103 / 107 40% 1 04.04.2028 -
Daniel Johan Skaarud Sandefjord Active 103 / 102 40% 1 04.04.2028 -
Yegor Koshkin Pobeda Active 92 / 86 40% 3 01.04.2028 -
Gabriel Maureira Colo-Colo Active 86 / 97 40% 1 01.04.2028 -
Santino Bacciadone Banfield Active 91 / 89 40% 1 23.03.2028 -
Tomás Báez Boca Juniors Active 94 / 95 40% 1 23.03.2028 -
Valentín Perroud Boca Juniors Active 89 / 89 40% 2 22.03.2028 -
Walter Molina Defensa y Justicia Active 96 / 97 40% 1 20.03.2028 -
Ignacio Fernández Boston River Active 89 / 101 40% 2 27.12.2027 -
Esquerdinha Notts County Active 119 / 124 40% 1 27.12.2027 -
Daniel Idoko Ikorodu City Active 88 / 102 40% 1 27.12.2027 -
Yury Oyarzo Racing Active 97 / 98 40% 1 03.12.2027 -
Luis Abreu Olimpia Active 90 / 101 69% 1 01.12.2027 Approve
Ander Astralaga Newcastle United Active 146 / 148 40% 1 30.11.2027 -
Frankarlos Benítez Caracas Active 113 / 114 40% 1 30.11.2027 -
Joe Whitworth Wigan Athletic Active 113 / 117 40% 1 30.11.2027 -
Matteo Rizzo Cosenza Active 112 / 103 40% 1 01.06.2027 -
Edmund Afful Hasaacas Active 91 / 86 40% 1 01.06.2027 -
Sascha Britschgi AC Milan Active 117 / 131 40% 2 30.05.2027 -
Martim Cunha Porto Active 111 / 115 40% 1 30.05.2027 -
Ali Ahmed Norwich City Active 113 / 132 40% 3 29.05.2027 -
Filip Marschall Stevenage Active 109 / 119 40% 2 29.05.2027 -
Alex Robertson Cardiff City Active 131 / 114 40% 1 29.05.2027 -
Josh Keeley Luton Town Active 135 / 130 40% 1 29.05.2027 -
Juan Diego Perdomo Depor Active 88 / 93 40% 1 28.05.2027 -
Nathan Broadhead Wrexham Active 121 / 131 40% 2 27.05.2027 -
Mikey Johnston West Bromwich Albion Active 121 / 125 40% 1 27.05.2027 -
Jack Diamond Stockport County Active 128 / 119 40% 1 27.05.2027 -
Andrea Bertoncini Triestina Active 88 / 88 40% 1 27.05.2027 -
Chari Giwa US Bougouni Active 81 / 83 40% 1 25.05.2027 -
Isaiah Jones Luton Town Active 121 / 117 40% 3 24.05.2027 -
Alessio Zerbin Frosinone Active 134 / 136 40% 2 24.05.2027 -
Zane Albarus Shrewsbury Town Active 102 / 113 40% 1 24.05.2027 -
Malik Mothersille Stockport County Active 123 / 122 40% 4 23.05.2027 -
Ludovico Del Sorbo Sorrento Active 112 / 99 40% 3 23.05.2027 -
Alfie Doughty Millwall Active 119 / 127 40% 1 23.05.2027 -
Strahinja Manojlović Radnicki Nis Active 118 / 118 40% 1 23.05.2027 -
Job Ochieng Real Sociedad Active 107 / 97 40% 2 21.05.2027 -
Dennis Cirkin Queens Park Rangers Active 118 / 136 40% 1 21.05.2027 -
Gladson Amoah Liberty Professionals Active 101 / 91 40% 1 20.05.2027 -
Francesco D'Alterio Ternana Active 100 / 118 40% 1 20.05.2027 -
Ezra Mayers West Ham United Active 127 / 130 40% 1 19.05.2027 -
Miguel Figueiredo Benfica Active 103 / 111 40% 1 17.05.2027 -
Rhys Walters Port Vale Active 102 / 101 40% 1 17.05.2027 -
Sławomir Abramowicz Jagiellonia Active 115 / 118 40% 1 15.05.2027 -
Tiago Freitas Benfica Active 108 / 117 40% 2 14.05.2027 -
Bence Dárdai VfL Wolfsburg Active 129 / 130 40% 1 14.05.2027 -
Jason Knight Bristol City Active 138 / 135 40% 2 11.05.2027 -
Cesare Galeotti Trapani Active 99 / 109 40% 1 10.05.2027 -
Sheyi Ojo Crewe Alexandra Active 110 / 97 40% 4 08.05.2027 -
Leandro Martins Benfica Active 105 / 100 40% 1 08.05.2027 -
Joel Bagan Cardiff City Active 106 / 127 40% 1 07.05.2027 -
Gonçalo Oliveira Benfica Active 116 / 127 40% 1 06.05.2027 -
Kazunari Kita Real Sociedad Active 105 / 114 40% 1 06.05.2027 -
Oladapo Afolayan Blackburn Rovers Active 116 / 112 40% 2 04.05.2027 -
Nicolás Muscio AFC Wimbledon Active 94 / 111 40% 1 04.05.2027 -
Justo Giani Umraniyespor Active 117 / 129 40% 5 02.05.2027 -
Daniel Kyerewaa Reading Active 120 / 115 40% 2 30.04.2027 -
Ilyas Ansah Hull City Active 124 / 130 40% 1 30.04.2027 -
Jackson Muleka Konyaspor Active 121 / 118 40% 1 25.04.2027 -
Othmane Maamma Watford Active 118 / 137 40% 1 23.04.2027 -
Alex Lowry Wycombe Wanderers Active 126 / 115 40% 1 22.04.2027 -
Ekain Orobengoa Real Sociedad Active 95 / 110 40% 1 22.04.2027 -
Killian Cahill Leyton Orient Active 109 / 122 40% 1 20.04.2027 -
Rocco Vata Watford Active 114 / 125 40% 2 19.04.2027 -
Bosun Lawal Stoke City Active 115 / 129 40% 1 14.04.2027 -
Cian Ashford Cardiff City Active 118 / 130 40% 2 12.04.2027 -
Joe Gelhardt Hull City Active 126 / 120 40% 1 05.04.2027 -
Lander Astiazarán Real Sociedad Active 114 / 118 40% 1 31.03.2027 -
Tahith Chong Sheffield United Active 115 / 124 40% 1 28.03.2027 -
Pelle Mattsson Norwich City Active 135 / 114 40% 1 28.03.2027 -
Lautaro Calderón Asante Kotoko Active 96 / 102 40% 1 25.03.2027 -
Sam Greenwood Bristol City Active 116 / 121 40% 1 22.03.2027 -
Mateo Jara Sportivo Luqueno Active 71 / 81 62% 1 21.12.2026 Approve
Harry Clarke Preston Active 113 / 142 40% 1 30.11.2026 -
Brooke Norton-Cuffy Hull City Active 147 / 137 40% 1 26.11.2026 -
Manu Morlanes Mallorca Active 136 / 144 40% 1 26.11.2026 -
Florentino Luís Ipswich Town Active 147 / 151 40% 1 23.11.2026 -
Max Bird Birmingham Active 143 / 122 40% 1 20.11.2026 -
Lewis Gibson Preston Active 134 / 134 40% 1 20.11.2026 -
Sandi Zajc NK Domzale Active 93 / 102 40% 1 18.10.2026 -
Ranko Veselinović Vancouver Whitecaps Active 133 / 131 40% 1 18.10.2026 -
Sebastián Miño Patronato Active 85 / 74 40% 1 04.08.2026 -